Shahre-Kord, Iran

5:34 AM IRST on January 22, 2017 (GMT +0330)
Shahre Kord

Weather History for OIFS - September, 2013

Change the Weather History Date:

Sunday, September 8, 2013

  Actual Average Record
Temperature  
Mean Temperature 66 °F -  
Max Temperature 87 °F - - ()
Min Temperature 46 °F - - ()
Cooling Degree Days 2    
Growing Degree Days 16 (Base 50)    
Moisture  
Dew Point 24 °F    
Average Humidity 20    
Maximum Humidity 43    
Minimum Humidity 4    
Precipitation  
Precipitation 0.00 in - - ()
Sea Level Pressure  
Sea Level Pressure 30.10 in    
Wind  
Wind Speed 3 mph ()    
Max Wind Speed 9 mph    
Max Gust Speed -    
Visibility 6.0 miles    
Events      
T = Trace of Precipitation, MM = Missing Value Source: Averaged Metar Reports

Daily Weather History Graph

Daily Weather History Graph

Search for Another Location

Airport or City:

Trip Planner

Search our weather history database for the weather conditions in past years. The results will help you decide how hot, cold, wet, or windy it might be!

Date:

Astronomy

Sep. 08, 2013 Rise Set
Actual Time 6:45 AM IRDT 7:22 PM IRDT
Civil Twilight 6:21 AM IRDT 7:46 PM IRDT
Nautical Twilight 5:52 AM IRDT 8:15 PM IRDT
Astronomical Twilight 5:22 AM IRDT 8:45 PM IRDT
Moon 9:25 AM IRDT (9/8) 8:57 PM IRDT (9/8)
Length of Visible Light 13h 25m
Length of Day
12h 36m
Waxing Crescent, 9% of the Moon is Illuminated
Sep 8
Waxing Crescent
Sep 12
First Quarter
Sep 19
Full
Sep 27
Last Quarter
Oct 5
New

Hourly Weather History & Observations

Time (IRDT) Temp. Dew Point Humidity Pressure Visibility Wind Dir Wind Speed Gust Speed Precip Events Conditions
12:30 AM 62.6 °F 26.6 °F 26% 30.15 in - SE 6.9 mph - N/A   Clear
1:30 AM 60.8 °F 24.8 °F 25% 30.15 in - Calm Calm - N/A   Clear
2:30 AM 59.0 °F 26.6 °F 29% 30.15 in - Calm Calm - N/A   Clear
4:30 AM 57 °F 26 °F 19% 29.62 in 6 mi West 8.9 mph - -  
4:30 AM 57.2 °F 26.6 °F 31% 30.15 in - West 9.2 mph - N/A   Clear
5:30 AM 51.8 °F 23.0 °F 33% 30.15 in - Calm Calm - N/A   Clear
6:30 AM 46.4 °F 23.0 °F 40% 30.18 in - Calm Calm - N/A   Clear
7:30 AM 46.4 °F 24.8 °F 43% 30.21 in - Calm Calm - N/A   Clear
8:30 AM 57.2 °F 24.8 °F 29% 30.21 in - Calm Calm - N/A   Clear
9:30 AM 62.6 °F 26.6 °F 26% 30.24 in - Calm Calm - N/A   Clear
10:30 AM 76 °F 28 °F 9% 29.82 in 6 mi Calm Calm - -  
10:30 AM 75.2 °F 28.4 °F 18% 30.24 in - Calm Calm - N/A   Clear
11:30 AM 78.8 °F 21.2 °F 12% 30.21 in - Calm Calm - N/A   Clear
12:30 PM 84.2 °F 17.6 °F 8% 30.21 in - SE 4.6 mph - N/A   Clear
1:30 PM 84.2 °F 17.6 °F 8% 30.18 in - East 4.6 mph - N/A   Clear
2:30 PM 86.0 °F 21.2 °F 9% 30.18 in - Calm Calm - N/A   Clear
3:30 PM 87.8 °F 21.2 °F 9% 30.15 in - ESE 6.9 mph - N/A   Clear
4:30 PM 86 °F 21 °F 4% 29.64 in 6 mi Calm Calm - -  
4:30 PM 86.0 °F 21.2 °F 9% 30.12 in - Calm Calm - N/A   Clear
5:30 PM 86.0 °F 24.8 °F 11% 30.12 in - East 6.9 mph - N/A   Clear
6:30 PM 84.2 °F 26.6 °F 12% 30.12 in - ENE 6.9 mph - N/A   Clear
7:30 PM 75.2 °F 28.4 °F 18% 30.12 in - East 6.9 mph - N/A   Clear
8:30 PM 69.8 °F 24.8 °F 18% 30.12 in - East 9.2 mph - N/A   Clear
9:30 PM 66.2 °F 26.6 °F 23% 30.15 in - Calm Calm - N/A   Clear
10:30 PM 62 °F 26 °F 14% 29.69 in 6 mi Calm Calm - -  
10:30 PM 62.6 °F 24.8 °F 24% 30.15 in - Calm Calm - N/A   Clear
11:30 PM 59.0 °F 26.6 °F 29% 30.15 in - Calm Calm - N/A   Clear